RYR531A EICK-LIPZ

Flight info

Callsign RYR531A
Flight time N/A
Altitude 35000
Route VAPAL1N VAPAL DCT BANBA DCT DIQSE DCT ICOSA DCT RUHUN DCT ZESPE DCT YORQI DCT UNZIB DCT NUCHU L607 BIG L15 MOTOX DCT RUCAC DCT LESDO DCT BUBLI DCT LUVAL DCT SHARA DCT DEVDI DCT RIPUS DCT RESIA DCT ADOSA L612 ALBET
Aircraft B738/M-SDE2E3FGHIRWXY/LB1

Departure

Time 2026-05-03 20:28
Airport Cork International Airport (EICK)

Arrival

Time N/A
Airport Venice Marco Polo Airport (LIPZ)
Time Latitude Longitude Altitude Speed Heading
2026-05-03 20:15 51.84844 -8.49054 503 ft 0 kts 70°
2026-05-03 20:19 51.84841 -8.49070 503 ft 4 kts 70°
2026-05-03 20:19 51.84831 -8.49110 503 ft 3 kts 71°
2026-05-03 20:19 51.84824 -8.49151 503 ft 4 kts 81°
2026-05-03 20:19 51.84823 -8.49193 503 ft 3 kts 109°
2026-05-03 20:20 51.84837 -8.49224 503 ft 3 kts 163°
2026-05-03 20:20 51.84841 -8.49226 503 ft 1 kts 169°
2026-05-03 20:24 51.84820 -8.49242 503 ft 7 kts 219°
2026-05-03 20:25 51.84786 -8.49358 503 ft 15 kts 249°
2026-05-03 20:25 51.84684 -8.49441 503 ft 23 kts 159°
2026-05-03 20:25 51.84495 -8.49327 503 ft 34 kts 160°
2026-05-03 20:25 51.84239 -8.49174 503 ft 43 kts 160°
2026-05-03 20:26 51.83971 -8.49014 503 ft 39 kts 160°
2026-05-03 20:26 51.83736 -8.48874 503 ft 34 kts 160°
2026-05-03 20:26 51.83529 -8.48751 503 ft 30 kts 160°
2026-05-03 20:26 51.83345 -8.48638 503 ft 26 kts 146°
2026-05-03 20:27 51.83246 -8.48542 503 ft 12 kts 227°
2026-05-03 20:27 51.83270 -8.48606 503 ft 7 kts 339°
2026-05-03 20:27 51.83318 -8.48635 503 ft 7 kts 339°
2026-05-03 20:27 51.83430 -8.48702 503 ft 44 kts 340°
2026-05-03 20:28 51.83942 -8.49003 503 ft 110 kts 340°
2026-05-03 20:28 51.84840 -8.49537 541 ft 159 kts 340°
2026-05-03 20:28 51.85545 -8.49951 905 ft 164 kts 341°
2026-05-03 20:28 51.86690 -8.50526 1519 ft 182 kts 345°
2026-05-03 20:29 51.87922 -8.51122 2270 ft 191 kts 345°
2026-05-03 20:29 51.89272 -8.51790 2521 ft 213 kts 345°
2026-05-03 20:29 51.90773 -8.52164 2759 ft 225 kts 11°
2026-05-03 20:29 51.92116 -8.50945 3245 ft 226 kts 49°
2026-05-03 20:30 51.92824 -8.48656 3733 ft 234 kts 77°
2026-05-03 20:30 51.92878 -8.46000 4307 ft 243 kts 92°
2026-05-03 20:30 51.92692 -8.43183 4754 ft 257 kts 94°
2026-05-03 20:30 51.92453 -8.40289 5440 ft 261 kts 95°
2026-05-03 20:31 51.92205 -8.37366 6174 ft 263 kts 95°
2026-05-03 20:31 51.91961 -8.34411 6872 ft 266 kts 95°
2026-05-03 20:31 51.91721 -8.31429 7560 ft 268 kts 95°
2026-05-03 20:31 51.91484 -8.28424 8211 ft 270 kts 95°
2026-05-03 20:32 51.91248 -8.25392 8849 ft 272 kts 95°
2026-05-03 20:32 51.91012 -8.22335 9486 ft 275 kts 94°
2026-05-03 20:32 51.90774 -8.19242 10101 ft 278 kts 95°
2026-05-03 20:32 51.90534 -8.16087 10353 ft 295 kts 95°
2026-05-03 20:33 51.90275 -8.12680 10519 ft 314 kts 95°
2026-05-03 20:33 51.89998 -8.09066 10670 ft 333 kts 95°
2026-05-03 20:33 51.89704 -8.05248 10808 ft 350 kts 95°
2026-05-03 20:33 51.89394 -8.01240 10941 ft 366 kts 95°
2026-05-03 20:34 51.89072 -7.97115 11298 ft 374 kts 95°
2026-05-03 20:34 51.88743 -7.92911 11842 ft 376 kts 95°
2026-05-03 20:34 51.88415 -7.88732 12453 ft 377 kts 95°